Location: Banksville Park
(38.5557°N, 75.1182°W)
Time: 23:19:02
(UTC+00:00)

CZ-2C R/B - Pass Details

Date: 19 September 2020
Orbit: 668 x 784 km, 98.2° (Epoch: 30 October)

Event Time Altitude Azimuth Distance (km) Brightness Sun altitude
Rises 09:10:44 0° 10° (N) 3,236 6.1 -19.1°
Reaches altitude 10° 09:13:02 10° 8° (N) 2,318 5.3 -18.7°
Maximum altitude 09:18:09 72° 285° (WNW) 819 2.4 -17.7°
Enters shadow 09:23:03 11° 202° (SSW) 2,236 4.6 -16.8°
